www.pogodaiklimat.ru
Время
и дата
19:35 30.12
19:47 30.12
19:54 30.12
20:12 30.12
20:54 30.12
21:54 30.12
22:02 30.12
22:09 30.12
22:36 30.12
22:54 30.12
23:54 30.12
00:54 31.12
01:54 31.12
02:54 31.12
03:22 31.12
03:28 31.12
03:37 31.12
03:44 31.12
03:52 31.12
03:54 31.12
04:06 31.12
04:21 31.12
04:25 31.12
04:38 31.12
04:54 31.12
05:54 31.12
06:33 31.12
06:54 31.12
07:22 31.12
07:34 31.12
07:54 31.12
08:21 31.12
08:33 31.12
08:43 31.12
08:54 31.12
09:14 31.12
09:26 31.12
09:54 31.12
10:13 31.12
10:51 31.12
10:54 31.12
11:54 31.12
12:54 31.12
13:54 31.12
14:54 31.12
15:54 31.12
16:54 31.12
17:54 31.12
Ветер
(напр.,м/с)
Видим. Явления Облачность Т
(С)
Тd
(С)
f
(%)
Тe
(С)
Тes
(С)
Комфортность P
(гПа)
Po
(гПа)
Тmin
(С)
Tmax
(С)
R
(мм)
R24
(мм)
S
(см)
ЮЗ 1 10 км дымка 10/10 390 м +17.2 +16.7 97 +18 +18 978.3
ЮЗ 1 8 км слабая морось, дымка 10/10 150 м +17.2 +16.7 97 +18 +18 978.7
Ю 1 10 км дымка 10/10 210 м +17.2 +16.7 97 +18 +18 1011.4 978.7
ЮЗ 1 13 км 10/10 240 м +17.2 +16.7 97 +17 +17 978.7
ЮЗ 1 14 км 10/10 180 м +17.2 +16.7 97 +17 +17 1011.6 978.7
ЮЗ 2 16 км 10/10 180 м +17.2 +16.1 93 +17 +17 1011.6 978.7
ЮЗ 1 16 км 10/10 300 м +17.2 +16.1 93 +17 +17 978.7
ЮЗ 2 16 км 10/10 240 м +17.2 +16.1 93 +17 +17 979.0
ЮЗ 2 16 км 10/10 270 м +17.2 +16.1 93 +17 +17 979.0
ЮЗ 1 10 км слабый дождь, дымка 10/10 270 м +17.2 +16.1 93 +17 +17 1012.1 979.3
ЮЗ 1 16 км 10/10 270 м +16.7 +16.1 96 +17 +17 1012.0 979.0
З 1 16 км 10/10 270 м +16.7 +16.1 96 +16 +16 1011.8 979.0 +16.7 +17.2
З 1 16 км 8/8 180 м +16.1 +15.6 97 +16 +16 1012.2 979.3
СЗ 1 14 км 10/10 180 м +16.1 +15.6 97 +16 +16 1012.6 979.7
С 1 8 км дымка 8/8 90 м +15.6 +15.0 96 +15 +15 979.7
С 1 800 м туман 10/10 60 м +15.6 +15.0 96 +15 +15 979.7
С 1 400 м туман 10/10 60 м +15.0 +15.0 100 +15 +15 979.7
СЗ 1 200 м туман 10/10 60 м +15.0 +15.0 100 +15 +15 979.7
СЗ 1 400 м туман ?/? +15.0 +15.0 100 +15 +15 979.7
СЗ 1 400 м туман ?/? +15.0 +15.0 100 +14 +14 1012.6 979.7
СЗ 1 2 км дымка 10/10 60 м +15.0 +15.0 100 +15 +15 979.7
С 1 400 м туман 10/10 60 м +15.0 +14.4 96 +15 +15 979.7
С 1 200 м туман ?/? +14.4 +14.4 100 +14 +14 979.7
штиль 0 100 м туман ?/? +14.4 +14.4 100 +14 +14 980.0
С 1 100 м туман ?/? +13.9 +13.9 100 +13 +13 1013.1 980.0
штиль 0 100 м туман ?/? +13.3 +13.3 100 +13 +13 1012.9 980.0
СЗ 1 200 м туман ?/? +13.3 +13.3 100 +12 +12 981.0
С 1 200 м туман ?/? +13.3 +13.3 100 +12 +12 1014.1 981.0 +12.8 +16.7
штиль 0 100 м туман ?/? +12.8 +12.8 100 +12 +12 981.3
штиль 0 400 м туман 10/10 60 м +12.8 +12.8 100 +12 +12 981.6
штиль 0 400 м туман 10/8 60 м
[Ac]
+12.8 +12.8 100 +12 +12 1014.9 981.6
штиль 0 800 м туман 10/10 60 м +13.3 +13.3 100 +13 +13 981.6
Ю 1 2 км дымка 10/10 60 м +13.9 +13.9 100 +13 +13 981.9
Ю 1 1 км дымка 10/10 90 м +13.9 +13.9 100 +13 +13 981.9
Ю 1 2 км дымка 10/10 60 м +13.9 +13.9 100 +13 +13 1015.3 982.3
Ю 1 3 км дымка 10/10 90 м +14.4 +14.4 100 +14 +14 982.3
Ю 1 5 км дымка 10/8 90 м
[Ac]
+14.4 +14.4 100 +14 +14 982.3
ЮЗ 1 6 км дымка 10/10 120 м +15.0 +15.0 100 +14 +14 1015.9 982.9
Ю 1 10 км дымка 10/8 180 м
[Ac]
+15.0 +15.0 100 +14 +14 982.6
Ю 1 13 км 8/5 210 м
[Ac]
+16.0 +14.0 88 +16 +17 982.6
Ю 1 13 км 8/5 210 м
[Ac]
+15.6 +14.4 93 +15 +17 1015.5 982.6
Ю 2 16 км 10/2 330 м
[Ac Ci]
+17.2 +14.4 84 +17 +18 1014.7 981.6
Ю 2 16 км 8/2 360 м
[Ac Ci]
+18.3 +13.3 73 +19 +21 1013.9 981.0 +12.2 +18.9
ЮЗ 2 16 км 10/2 510 м
[Ac]
+18.9 +13.3 70 +20 +21 1013.5 980.6
ЮЗ 2 16 км 10/2 690 м
[Ac]
+17.8 +13.3 75 +18 +19 1013.1 980.3
Ю 2 16 км слабый дождь 10/0 2100 м
[Ac]
+17.8 +13.9 78 +18 +18 1012.7 979.7
Ю 1 16 км 10/0 3000 м
[Ac Ci]
+17.2 +13.3 78 +17 +18 1012.6 979.7
Ю 2 16 км 8/0 6000 м
[Ac Ci]
+16.1 +13.3 83 +15 +15 1012.8 979.7
Местоположение метеостанции Piedmont Triad International Airport: широта 36.0975 долгота -79.9436 высота над уровнем моря 282 м.
В архиве по умолчанию представлена погода в Гринсборо за последние 1-2 суток. Обновление информации о фактической погоде в базе происходит ежечасно! Архивные данные за месяц целиком и за предыдущие месяцы Вы можете получить, выбрав интересующий диапазон дат из раскрывающегося списка и нажав кнопку "Ввод!".
Внимание! Архив погоды МЕТАР в базе сайта по станциям, не включенным в климатический монитор, хранится не более 60 дней. Нет смысла пытаться выбрать более раннюю дату.
*Определитесь, кто Вы:
Внимание! Время в таблицах - местное (без учета летнего времени). Для получения всемирного времени необходимо вычесть поправку, которая равна -5 ч.
Смотрите также архив погоды в соседних городах и на ближайших метеорологических станциях:
Партнеры нашего сайта:      
Пояснения к столбцам:
  • Ветер - указаны скорость ветра в м/с - средняя за 10 мин, порывы в срок и между сроками (в фигурных скобках) и направление, откуда дует ветер: С - северный,
  • СВ - северо-восточный, В - восточный, ЮВ - юго-восточный, Ю - южный, ЮЗ - юго-западный, З - западный, СЗ - северо-западный.
  • Видимость - горизонтальная дальность видимости в метрах или километрах. При видимости от 1 до 10 км при отсутствии осадков обычно наблюдается дымка, при ухудшении видимости до 1 км и менее - туман. В сухую погоду видимость может ухудшаться дымом, пылью или мглою.
  • Явления - указаны атмосферные явления, наблюдавшиеся в срок или в последний час перед сроком; фигурными скобками обозначены явления, наблюдавшиеся между сроками (за 1-3 часа до срока); квадратными скобками обозначены град или гололедные отложения с указанием их диаметра в мм.
  • Облачность - указаны через наклонную черту общая и нижняя облачность в баллах и высота нижней границы облаков в метрах; квадратными скобками обозначены формы облаков: Ci - перистые, Cs - перисто-слоистые, Cc - перисто-кучевые, Ac - высококучевые, As - высокослоистые, Sc - слоисто-кучевые, Ns - слоисто-дождевые, Cu - кучевые, Cb - кучево-дождевые. Подробнее классификацию облаков см. в Атласе облаков (PDF).
  • T - Температура воздуха - температура, измеренная на высоте 2 м над землей.
  • Td - Температура точки росы - температура, при понижении до которой содержащийся в воздухе водяной пар достигнет насыщения.
  • f - Относительная влажность воздуха - влажноcть воздуха, измеренная на высоте 2 м над землей.
  • Te - Эффективная температура - температура, которую ощущает одетый по сезону человек в тени. Характеристика душности погоды. При расчете учитывается влияние влажности воздуха и скорости ветра на теплоощущения человека.
  • Tes - Эффективная температура на солнце - температура, которую ощущает человек, с поправкой на солнечный нагрев. Характеристика знойности погоды. Зависит от высоты солнца над горизонтом, облачности и скорости ветра. Ночью, в пасмурную погоду, а также при ветре 12 м/с и более поправка равна нулю.
  • P - Атмосферное давление - приведенное к уровню моря атмосферное давление.
  • Po - Атмосферное давление - измеренное на уровне метеостанции атмосферное давление.
  • Tmin - Минимальная температура - минимум температуры воздуха на высоте 2 м над землей.
  • Tmax - Максимальная температура - максимум температуры воздуха на высоте 2 м над землей.
  • R - Количество осадков - Количество выпавших осадков за период времени, мм. При наведении курсора мыши на число - период времени, за который выпало указанное количество осадков.
  • R24 - Количество осадков - Количество выпавших осадков за 24 часа, мм.
  • S - Снежный покров - Высота снежного покрова, см. При наведении курсора мыши на число - состояние снежного покрова и степень покрытия местности в баллах.